TimeCDT,TemperatureF,Dew PointF,Humidity,Sea Level PressureIn,VisibilityMPH,Wind Direction,Wind SpeedMPH,Gust SpeedMPH,PrecipitationIn,Events,Conditions,WindDirDegrees,DateUTC
12:52 AM,68.0,64.0,87,30.01,10.0,East,4.6,-,N/A,,Clear,100,2014-06-26 05:52:00
1:52 AM,66.2,64.4,94,30.03,10.0,East,5.8,-,N/A,,Clear,90,2014-06-26 06:52:00
2:52 AM,66.0,63.0,90,30.00,10.0,East,5.8,-,N/A,,Clear,90,2014-06-26 07:52:00
3:52 AM,64.9,62.1,90,30.01,7.0,ESE,3.5,-,N/A,,Clear,110,2014-06-26 08:52:00
4:52 AM,64.0,62.1,93,30.00,5.0,East,5.8,-,N/A,,Clear,100,2014-06-26 09:52:00
5:19 AM,64.4,62.6,94,30.01,4.0,East,6.9,-,N/A,,Scattered Clouds,100,2014-06-26 10:19:00
5:23 AM,64.4,62.6,94,30.01,1.5,East,6.9,-,N/A,,Mostly Cloudy,100,2014-06-26 10:23:00
5:45 AM,66.2,64.4,94,30.02,0.5,East,8.1,-,N/A,Fog,Fog,100,2014-06-26 10:45:00
5:52 AM,66.0,64.0,93,30.01,0.5,ESE,6.9,-,N/A,Fog,Fog,110,2014-06-26 10:52:00
5:59 AM,66.2,64.4,94,30.02,0.2,East,5.8,-,N/A,Fog,Fog,100,2014-06-26 10:59:00
6:07 AM,66.2,64.4,94,30.02,0.2,East,6.9,-,N/A,Fog,Fog,100,2014-06-26 11:07:00
6:14 AM,66.2,64.4,94,30.02,0.5,East,8.1,-,N/A,Fog,Fog,100,2014-06-26 11:14:00
6:31 AM,66.2,64.4,94,30.02,1.2,ESE,6.9,-,N/A,,Overcast,110,2014-06-26 11:31:00
6:47 AM,66.2,64.4,94,30.02,1.5,East,9.2,-,N/A,,Overcast,100,2014-06-26 11:47:00
6:52 AM,66.0,64.0,93,30.01,1.5,ESE,9.2,-,N/A,,Overcast,110,2014-06-26 11:52:00
7:06 AM,66.2,64.4,94,30.02,1.2,East,10.4,-,N/A,,Overcast,100,2014-06-26 12:06:00
7:40 AM,66.2,64.4,94,30.03,0.8,ESE,9.2,-,N/A,,Overcast,110,2014-06-26 12:40:00
7:52 AM,66.0,64.0,93,30.03,0.8,ESE,5.8,-,N/A,,Overcast,110,2014-06-26 12:52:00
8:52 AM,66.9,64.0,90,30.04,0.8,East,9.2,-,N/A,,Overcast,80,2014-06-26 13:52:00
8:59 AM,66.2,64.4,94,30.05,1.5,East,11.5,-,N/A,,Overcast,80,2014-06-26 13:59:00
9:28 AM,68.0,64.4,88,30.05,4.0,East,9.2,-,N/A,,Overcast,90,2014-06-26 14:28:00
9:52 AM,69.1,64.0,84,30.04,4.0,East,9.2,-,N/A,,Haze,90,2014-06-26 14:52:00
10:35 AM,71.6,64.4,78,30.04,6.0,East,8.1,-,N/A,,Haze,100,2014-06-26 15:35:00
10:52 AM,73.0,66.0,79,30.03,6.0,East,6.9,-,N/A,,Haze,100,2014-06-26 15:52:00
11:52 AM,77.0,66.9,71,30.02,10.0,East,5.8,-,N/A,,Clear,90,2014-06-26 16:52:00
12:52 PM,81.0,68.0,65,30.01,10.0,East,9.2,17.3,N/A,,Clear,100,2014-06-26 17:52:00
1:52 PM,82.9,69.1,63,29.98,10.0,East,11.5,-,N/A,,Partly Cloudy,90,2014-06-26 18:52:00
2:52 PM,84.0,68.0,58,29.96,10.0,ESE,8.1,-,N/A,,Scattered Clouds,110,2014-06-26 19:52:00
3:52 PM,82.0,68.0,62,29.95,10.0,ESE,8.1,-,N/A,,Scattered Clouds,110,2014-06-26 20:52:00
4:52 PM,81.0,68.0,65,29.93,10.0,ESE,9.2,-,N/A,,Mostly Cloudy,110,2014-06-26 21:52:00
5:12 PM,78.8,64.4,61,29.93,10.0,SW,11.5,-,N/A,Thunderstorm,Scattered Clouds,230,2014-06-26 22:12:00
5:52 PM,75.9,64.0,67,29.94,10.0,North,4.6,-,N/A,Thunderstorm,Partly Cloudy,350,2014-06-26 22:52:00
6:21 PM,75.2,66.2,73,29.94,10.0,NNE,5.8,-,N/A,,Clear,30,2014-06-26 23:21:00
6:52 PM,75.9,66.9,74,29.94,10.0,East,3.5,-,N/A,,Clear,80,2014-06-26 23:52:00
7:52 PM,73.9,66.0,76,29.94,10.0,East,9.2,-,N/A,,Clear,80,2014-06-27 00:52:00
8:52 PM,72.0,66.9,84,29.94,10.0,East,5.8,-,N/A,,Clear,80,2014-06-27 01:52:00
9:52 PM,72.0,66.9,84,29.96,10.0,East,4.6,-,N/A,,Clear,90,2014-06-27 02:52:00
10:52 PM,70.0,66.9,90,29.95,10.0,East,5.8,-,N/A,,Clear,90,2014-06-27 03:52:00
11:52 PM,71.1,66.0,84,29.96,10.0,East,5.8,-,N/A,,Clear,90,2014-06-27 04:52:00